Printer-friendly version

IAU Minor Planet Center

Minor Planet Center

MPEC 2009-C03 : COMET P/2005 R2 = 2009 B3 (VAN NESS)

The following Minor Planet Electronic Circular may be linked-to from your own Web pages, but must not otherwise be redistributed electronically.


Read MPEC 2009-C02 Read MPEC 2009-C04


M.P.E.C. 2009-C03                                Issued 2009 Feb. 2, 01:18 UT

     The Minor Planet Electronic Circulars contain information on unusual
         minor planets and routine data on comets.  They are published
   on behalf of Commission 20 of the International Astronomical Union by the
          Minor Planet Center, Smithsonian Astrophysical Observatory,
                          Cambridge, MA 02138, U.S.A.

             Prepared using the Tamkin Foundation Computer Network

                              MPC@CFA.HARVARD.EDU
          URL http://www.cfa.harvard.edu/iau/mpc.html  ISSN 1523-6714

                     COMET P/2005 R2 = 2009 B3 (VAN NESS)

Observations:
    PK09B030  C2009 01 31.36200 10 57 13.96 +00 44 12.1          20.7 N EC003H36
    PK09B030  C2009 01 31.39220 10 57 13.04 +00 44 14.5          21.0 N EC003H36
    PK09B030  C2009 02 01.33990 10 56 44.32 +00 45 22.3          20.6 N EC003H36
    PK09B030  C2009 02 01.35904 10 56 43.65 +00 45 23.3          20.7 N EC003H36

Observer details:
H36 Sandlot Observatory, Scranton.  Observer G. Hug.  0.56-m reflector + CCD.

Orbital elements:
    P/2005 R2 = 2009 B3 (Van Ness)
Epoch 2005 Jan. 30.0 TT = JDT 2453400.5
T 2005 Feb. 10.08156 TT                                 MPC
q   2.1281446            (2000.0)            P               Q
n   0.15544778     Peri.    3.08357     +0.71643198     +0.68533366
a   3.4256766      Node   312.72879     -0.64383039     +0.57740399
e   0.3787667      Incl.   10.23701     -0.26871479     +0.44375940
P   6.34

